Location: Oberkirch
(48.5323°N, 8.0787°E)
Time: 16:29:34
(UTC+00:00)

S-56A Canister/Altair - Pass Details

Date: 20 February 2026
Orbit: 633 x 2484 km, 38.9° (Epoch: 8 March)

Event Time Altitude Azimuth Distance (km) Brightness Sun altitude
Exits shadow 01:49:35 19° 131° (SE) 3,316 10.7 -43.9°
Drops below altitude 10° 01:52:27 10° 124° (ESE) 4,169 11.3 -43.6°
Sets 01:56:42 0° 118° (ESE) 5,451 12.1 -43.1°
